�N����,����,�~����,�C��,���x,�C��,����,���ϕ���,�ő�u�ԕ���,�ő厞����,���˗�,�I�_���x,�n�����x,�ő啗���N��,DTYPE
"23/05/09","00:10",0.0,12.9,77.6,1009.7,327.7,6.6,11.4,336.8,0.00,9.1,16.2,"00:02:16",1
"23/05/09","00:20",0.0,12.8,77.7,1009.7,330.4,6.1,9.4,328.6,0.00,9.0,16.2,"00:13:50",1
"23/05/09","00:30",0.0,12.8,77.6,1009.5,329.5,5.6,8.7,340.0,0.00,9.0,16.0,"00:22:12",1
"23/05/09","00:40",0.0,12.8,77.5,1009.0,329.0,5.9,8.1,328.9,0.00,9.0,16.1,"00:38:56",1
"23/05/09","00:50",0.0,12.8,77.2,1009.0,324.9,4.9,8.2,326.7,0.00,9.0,16.1,"00:43:16",1
"23/05/09","01:00",0.0,12.7,77.1,1009.3,324.7,3.6,6.5,323.3,0.00,8.8,16.0,"00:51:52",1
"23/05/09","01:10",0.0,12.5,77.4,1009.0,329.0,2.0,4.5,344.6,0.00,8.7,16.1,"01:08:26",1
"23/05/09","01:20",0.0,12.4,77.7,1009.3,336.6,2.0,3.7,320.3,0.00,8.7,15.9,"01:11:34",1
"23/05/09","01:30",0.0,12.3,77.7,1009.5,329.9,1.7,4.5,343.0,0.00,8.6,15.8,"01:24:58",1
"23/05/09","01:40",0.0,12.3,77.8,1009.3,301.2,2.1,4.8,304.3,0.00,8.6,15.9,"01:38:16",1
"23/05/09","01:50",0.0,12.4,77.7,1009.0,332.1,2.7,4.4,333.3,0.00,8.7,16.0,"01:42:24",1
"23/05/09","02:00",0.0,12.6,77.3,1009.3,329.7,3.5,5.7,334.8,0.00,8.8,15.9,"01:54:20",1
"23/05/09","02:10",0.0,12.4,77.5,1009.3,330.9,3.0,4.0,334.5,0.00,8.6,15.7,"02:02:40",1
"23/05/09","02:20",0.0,12.2,78.2,1009.3,328.2,3.4,5.2,316.1,0.00,8.6,15.9,"02:17:30",1
"23/05/09","02:30",0.0,12.1,78.9,1009.7,328.1,3.4,5.1,323.2,0.00,8.6,15.6,"02:22:08",1
"23/05/09","02:40",0.0,11.9,79.4,1009.3,325.6,3.1,4.1,331.8,0.00,8.5,15.8,"02:34:20",1
"23/05/09","02:50",0.0,11.9,80.1,1009.3,330.2,3.4,4.7,331.6,0.00,8.6,15.6,"02:40:18",1
"23/05/09","03:00",0.0,12.0,80.0,1009.3,311.3,2.8,4.4,309.1,0.00,8.7,15.5,"02:55:24",1
"23/05/09","03:10",0.0,11.9,79.7,1009.3,313.4,2.7,4.2,338.4,0.00,8.5,15.7,"03:00:30",1
"23/05/09","03:20",0.0,11.8,80.2,1009.5,327.8,2.2,2.8,319.2,0.00,8.5,15.6,"03:11:18",1
"23/05/09","03:30",0.0,11.1,81.5,1009.5,326.2,1.8,2.2,320.9,0.00,8.1,15.6,"03:22:40",1
"23/05/09","03:40",0.0,10.6,82.7,1009.7,307.7,1.6,2.0,320.6,0.00,7.8,15.5,"03:30:16",1
"23/05/09","03:50",0.0,10.6,84.1,1010.0,309.7,2.1,2.9,337.1,0.00,8.1,15.5,"03:48:32",1
"23/05/09","04:00",0.0,10.4,85.4,1010.0,315.0,2.6,4.0,308.2,0.00,8.1,15.5,"03:57:52",1
"23/05/09","04:10",0.0,10.3,86.3,1010.2,321.4,2.2,2.6,314.1,0.00,8.2,15.6,"04:00:48",1
"23/05/09","04:20",0.0,10.1,87.2,1010.0,324.1,2.3,2.9,352.5,0.00,8.1,15.5,"04:17:12",1
"23/05/09","04:30",0.0,9.9,88.1,1010.2,319.3,2.6,3.1,308.6,0.00,8.1,15.4,"04:26:32",1
"23/05/09","04:40",0.0,9.7,88.8,1010.2,320.0,2.7,3.5,318.9,0.00,8.0,15.4,"04:34:56",1
"23/05/09","04:50",0.0,9.7,89.4,1010.2,322.4,2.8,3.4,332.4,0.00,8.1,15.3,"04:45:44",1
"23/05/09","05:00",0.0,9.8,89.7,1010.4,326.8,2.7,3.9,310.1,0.00,8.2,15.3,"04:57:36",1
"23/05/09","05:10",0.0,10.2,89.8,1010.7,322.9,3.4,4.8,336.4,0.00,8.6,15.3,"05:00:56",1
"23/05/09","05:20",0.0,10.4,89.6,1010.4,322.2,3.6,5.6,323.8,0.00,8.8,15.4,"05:19:52",1
"23/05/09","05:30",0.0,10.6,89.3,1010.7,325.9,4.0,5.2,325.7,0.00,9.0,15.2,"05:20:24",1
"23/05/09","05:40",0.0,10.7,88.9,1010.7,329.6,4.2,7.0,330.7,0.00,9.0,15.2,"05:34:48",1
"23/05/09","05:50",0.0,10.7,88.7,1010.4,329.8,4.5,6.0,351.3,0.00,9.0,15.4,"05:47:04",1
"23/05/09","06:00",0.0,10.6,88.6,1010.7,328.5,3.0,4.8,343.2,0.00,8.8,15.1,"05:54:56",1
"23/05/09","06:10",0.0,10.6,88.7,1010.9,333.1,3.0,4.9,332.6,0.00,8.9,15.2,"06:08:00",1
"23/05/09","06:20",0.0,10.8,88.7,1010.7,335.2,3.2,5.5,338.0,0.00,9.1,15.1,"06:14:48",1
"23/05/09","06:30",0.0,10.9,88.4,1011.2,329.2,3.0,4.3,338.0,0.01,9.1,15.0,"06:21:52",1
"23/05/09","06:40",0.0,11.1,88.0,1011.2,323.6,3.2,4.2,314.1,0.03,9.2,15.2,"06:35:38",1
"23/05/09","06:50",0.0,11.5,87.5,1011.2,307.5,2.3,4.2,338.8,0.03,9.5,15.0,"06:41:32",1
"23/05/09","07:00",0.0,11.8,86.9,1011.2,283.8,1.3,2.5,312.6,0.04,9.7,15.1,"06:50:32",1
"23/05/09","07:10",0.0,12.0,86.0,1011.4,261.2,1.3,2.1,262.5,0.04,9.8,14.9,"07:07:12",1
"23/05/09","07:20",0.0,12.6,85.1,1011.4,300.3,0.8,1.4,313.3,0.06,10.2,15.1,"07:13:52",1
"23/05/09","07:30",0.0,13.7,83.7,1011.4,323.6,1.1,2.2,330.4,0.11,11.0,15.1,"07:29:40",1
"23/05/09","07:40",0.0,13.9,81.8,1011.4,309.2,1.6,2.4,332.7,0.12,10.9,15.0,"07:30:32",1
"23/05/09","07:50",0.0,14.4,79.7,1011.6,297.9,0.8,1.9,329.7,0.14,11.0,15.0,"07:41:44",1
"23/05/09","08:00",0.0,15.0,76.9,1011.9,348.0,0.6,1.1,98.2,0.17,11.0,14.9,"07:52:48",1
"23/05/09","08:10",0.0,15.9,73.1,1011.6,337.5,0.3,1.2,342.0,0.17,11.1,15.0,"08:04:40",1
"23/05/09","08:20",0.0,16.0,70.7,1011.9,286.7,0.7,2.2,329.6,0.21,10.7,15.1,"08:19:28",1
"23/05/09","08:30",0.0,16.4,68.5,1011.9,340.8,1.0,2.5,346.7,0.24,10.6,15.1,"08:29:52",1
"23/05/09","08:40",0.0,16.6,67.2,1011.2,15.8,0.7,2.1,341.3,0.27,10.5,15.1,"08:30:24",1
"23/05/09","08:50",0.0,17.3,66.3,1011.4,13.5,0.6,1.7,120.8,0.30,11.0,15.2,"08:40:40",1
"23/05/09","09:00",0.0,16.7,63.6,1011.2,132.0,1.2,2.2,180.3,0.34,9.8,15.1,"08:57:36",1
"23/05/09","09:10",0.0,16.9,63.9,1010.9,256.1,1.1,2.6,187.6,0.36,10.1,15.1,"09:03:04",1
"23/05/09","09:20",0.0,17.4,63.6,1010.9,168.1,1.1,1.9,112.7,0.38,10.5,15.0,"09:16:08",1
"23/05/09","09:30",0.0,17.7,62.5,1010.7,310.2,1.0,2.6,143.8,0.39,10.5,15.2,"09:20:56",1
"23/05/09","09:40",0.0,18.1,60.3,1010.2,320.7,0.7,2.1,287.3,0.43,10.3,15.2,"09:35:52",1
"23/05/09","09:50",0.0,18.6,58.9,1010.4,357.7,1.0,2.2,355.1,0.47,10.5,15.3,"09:42:24",1
"23/05/09","10:00",0.0,18.7,59.8,1010.0,146.6,0.7,2.2,115.8,0.48,10.8,15.5,"09:53:28",1
"23/05/09","10:10",0.0,19.2,57.7,1009.7,163.4,0.6,1.9,104.0,0.47,10.7,15.1,"10:07:44",1
"23/05/09","10:20",0.0,18.6,56.2,1010.0,115.4,1.2,3.5,118.6,0.50,9.8,15.3,"10:16:08",1
"23/05/09","10:30",0.0,19.2,57.5,1010.0,102.1,1.0,2.1,166.3,0.53,10.7,15.6,"10:29:44",1
"23/05/09","10:40",0.0,19.4,59.3,1010.2,180.0,1.6,3.4,133.5,0.54,11.3,15.6,"10:36:08",1
"23/05/09","10:50",0.0,19.5,54.3,1009.7,270.5,1.1,2.5,313.4,0.55,10.1,15.5,"10:47:44",1
"23/05/09","11:00",0.0,19.3,54.7,1009.5,341.3,1.6,2.9,327.8,0.57,10.0,15.4,"10:51:04",1
"23/05/09","11:10",0.0,20.4,52.6,1009.3,41.2,1.0,1.9,5.6,0.58,10.4,15.8,"11:00:32",1
"23/05/09","11:20",0.0,20.6,53.2,1009.5,139.4,1.3,2.9,140.5,0.59,10.8,15.6,"11:19:12",1
"23/05/09","11:30",0.0,20.7,53.8,1009.3,176.3,1.6,2.9,138.5,0.60,11.1,15.9,"11:23:28",1
"23/05/09","11:40",0.0,20.8,51.9,1009.0,179.5,1.6,3.5,121.1,0.58,10.6,15.9,"11:38:32",1
"23/05/09","11:50",0.0,21.0,51.3,1009.3,71.6,1.3,3.3,104.3,0.59,10.6,15.9,"11:44:24",1
"23/05/09","12:00",0.0,21.3,49.8,1008.6,181.7,1.5,3.6,162.0,0.62,10.4,16.0,"11:57:36",1
"23/05/09","12:10",0.0,21.9,49.7,1009.0,148.3,1.3,4.0,122.1,0.62,11.0,16.1,"12:03:36",1
"23/05/09","12:20",0.0,22.0,52.0,1008.6,176.2,1.8,3.9,189.8,0.63,11.7,16.2,"12:18:08",1
"23/05/09","12:30",0.0,21.6,48.8,1008.6,134.7,2.1,3.7,143.5,0.63,10.4,16.1,"12:20:16",1
"23/05/09","12:40",0.0,22.2,48.8,1008.1,212.7,1.5,3.4,107.4,0.63,11.0,16.3,"12:34:24",1
"23/05/09","12:50",0.0,22.4,46.2,1008.3,177.7,1.3,2.7,198.0,0.63,10.3,16.4,"12:46:24",1
"23/05/09","13:00",0.0,22.7,47.4,1007.8,166.8,1.2,3.1,118.8,0.63,11.0,16.7,"12:54:56",1
"23/05/09","13:10",0.0,22.9,44.5,1007.6,200.0,1.2,3.2,168.1,0.62,10.2,16.7,"13:06:08",1
"23/05/09","13:20",0.0,23.2,43.5,1007.4,161.9,1.3,4.3,122.9,0.62,10.2,16.6,"13:15:04",1
"23/05/09","13:30",0.0,23.6,46.2,1007.1,211.4,1.3,3.2,331.4,0.61,11.4,16.9,"13:26:24",1
"23/05/09","13:40",0.0,23.0,41.0,1006.9,134.5,2.3,4.5,177.1,0.61,9.1,16.9,"13:31:28",1
"23/05/09","13:50",0.0,23.3,43.1,1006.9,150.5,1.6,3.6,112.6,0.60,10.1,17.0,"13:40:48",1
"23/05/09","14:00",0.0,23.7,37.3,1007.1,28.1,1.2,2.8,359.0,0.59,8.3,17.2,"13:56:40",1
"23/05/09","14:10",0.0,24.0,42.2,1006.9,127.7,1.0,2.9,125.6,0.58,10.4,17.0,"14:08:00",1
"23/05/09","14:20",0.0,24.3,40.8,1006.7,67.0,1.0,2.2,107.8,0.57,10.2,17.0,"14:14:00",1
"23/05/09","14:30",0.0,24.4,37.8,1006.4,215.8,1.1,2.8,227.2,0.56,9.1,17.3,"14:24:16",1
"23/05/09","14:40",0.0,24.4,36.8,1006.4,192.7,1.3,2.8,132.9,0.54,8.7,17.4,"14:32:08",1
"23/05/09","14:50",0.0,24.2,36.9,1006.4,178.1,1.6,4.1,229.1,0.53,8.6,17.2,"14:48:24",1
"23/05/09","15:00",0.0,24.7,35.9,1006.2,198.8,1.3,3.1,148.0,0.52,8.6,17.4,"14:52:56",1
"23/05/09","15:10",0.0,24.9,34.5,1006.2,310.3,1.6,4.4,353.8,0.50,8.2,17.6,"15:06:48",1
"23/05/09","15:20",0.0,24.5,32.0,1006.0,294.0,2.0,4.9,344.0,0.47,6.8,17.5,"15:12:00",1
"23/05/09","15:30",0.0,24.7,31.4,1006.0,242.6,1.7,3.3,238.6,0.46,6.7,17.8,"15:28:40",1
"23/05/09","15:40",0.0,25.0,32.4,1005.7,279.6,1.3,3.2,280.5,0.44,7.4,17.7,"15:31:20",1
"23/05/09","15:50",0.0,24.7,30.7,1005.2,280.6,2.2,4.8,229.3,0.41,6.4,17.7,"15:41:04",1
"23/05/09","16:00",0.0,25.3,32.5,1005.5,264.3,1.1,3.5,351.8,0.39,7.7,17.8,"15:51:20",1
"23/05/09","16:10",0.0,24.9,29.7,1005.5,317.6,2.0,4.1,345.5,0.37,6.0,17.9,"16:03:28",1
"23/05/09","16:20",0.0,24.7,31.0,1006.0,254.3,2.0,3.9,241.8,0.34,6.5,17.8,"16:18:56",1
"23/05/09","16:30",0.0,25.2,31.4,1005.7,252.0,1.0,1.9,144.7,0.32,7.1,18.2,"16:21:36",1
"23/05/09","16:40",0.0,24.7,32.8,1006.0,330.2,2.5,5.1,346.9,0.29,7.3,18.1,"16:37:44",1
"23/05/09","16:50",0.0,24.6,33.6,1006.0,328.4,2.5,4.7,330.0,0.26,7.6,18.0,"16:42:08",1
"23/05/09","17:00",0.0,25.3,33.4,1006.0,328.8,1.2,2.7,331.4,0.24,8.1,18.3,"16:54:40",1
"23/05/09","17:10",0.0,24.9,37.3,1005.7,307.2,2.1,3.4,338.6,0.21,9.4,18.2,"17:04:32",1
"23/05/09","17:20",0.0,24.7,36.7,1006.2,301.5,2.2,4.2,328.0,0.19,9.0,18.4,"17:13:28",1
"23/05/09","17:30",0.0,24.0,37.1,1006.2,328.9,3.1,5.0,337.7,0.16,8.5,18.2,"17:21:20",1
"23/05/09","17:40",0.0,24.0,36.5,1006.4,327.7,2.1,3.9,338.2,0.14,8.3,18.2,"17:36:56",1
"23/05/09","17:50",0.0,23.6,39.0,1006.2,319.0,2.3,5.2,305.0,0.11,8.9,18.3,"17:46:08",1
"23/05/09","18:00",0.0,22.6,39.8,1006.4,323.8,4.0,6.3,343.3,0.09,8.3,18.2,"17:53:20",1
"23/05/09","18:10",0.0,22.2,42.4,1006.2,327.0,3.5,6.2,339.6,0.06,8.9,18.4,"18:05:36",1
"23/05/09","18:20",0.0,22.3,41.4,1006.4,340.8,2.1,4.1,346.1,0.01,8.6,18.3,"18:18:48",1
"23/05/09","18:30",0.0,22.4,43.2,1006.4,332.5,1.5,2.9,345.8,0.01,9.3,18.3,"18:26:00",1
"23/05/09","18:40",0.0,21.9,44.2,1006.7,338.3,1.3,2.6,312.8,0.01,9.2,18.2,"18:37:52",1
"23/05/09","18:50",0.0,21.4,47.0,1007.1,346.6,1.6,2.5,352.9,0.00,9.7,18.4,"18:40:08",1
"23/05/09","19:00",0.0,20.7,49.9,1006.9,338.1,1.5,2.7,343.7,0.00,9.9,18.2,"18:50:24",1
"23/05/09","19:10",0.0,19.9,49.6,1006.9,319.8,1.3,2.2,331.5,0.00,9.1,18.3,"19:05:20",1
"23/05/09","19:20",0.0,19.4,51.4,1007.1,316.4,1.3,2.1,344.7,0.00,9.2,18.3,"19:13:44",1
"23/05/09","19:30",0.0,19.0,52.0,1007.4,321.9,1.8,2.5,327.0,0.00,9.0,18.1,"19:20:56",1
"23/05/09","19:40",0.0,18.6,51.9,1007.6,282.5,1.6,2.7,282.3,0.00,8.6,18.2,"19:33:52",1
"23/05/09","19:50",0.0,18.2,50.3,1007.6,271.4,1.6,2.7,263.2,0.00,7.7,18.2,"19:46:00",1
"23/05/09","20:00",0.0,17.6,55.1,1007.6,279.3,1.2,1.7,244.8,0.00,8.5,18.2,"19:56:40",1
"23/05/09","20:10",0.0,17.2,54.1,1008.3,275.5,1.7,2.2,245.5,0.00,7.9,18.1,"20:00:48",1
"23/05/09","20:20",0.0,17.0,55.7,1008.3,276.0,1.5,2.4,270.4,0.00,8.1,18.2,"20:10:48",1
"23/05/09","20:30",0.0,16.6,57.2,1008.1,286.7,1.6,2.2,317.7,0.00,8.1,17.7,"20:29:28",1
"23/05/09","20:40",0.0,16.2,57.2,1008.3,292.7,1.5,2.5,315.2,0.00,7.8,18.1,"20:35:44",1
"23/05/09","20:50",0.0,15.7,58.6,1008.3,289.8,1.8,2.4,286.4,0.00,7.7,17.6,"20:42:24",1
"23/05/09","21:00",0.0,15.5,58.7,1008.6,312.2,2.5,3.6,310.6,0.00,7.5,18.1,"20:53:20",1
"23/05/09","21:10",0.0,15.4,59.1,1008.8,293.6,1.8,3.4,323.9,0.00,7.5,17.9,"21:00:24",1
"23/05/09","21:20",0.0,15.0,61.0,1008.6,311.7,2.1,3.7,338.7,0.00,7.6,17.7,"21:11:38",1
"23/05/09","21:30",0.0,14.7,62.9,1008.8,328.6,2.7,3.5,338.0,0.00,7.8,17.7,"21:25:12",1
"23/05/09","21:40",0.0,14.7,61.3,1008.8,321.5,3.2,4.1,322.0,0.00,7.4,17.7,"21:34:02",1
"23/05/09","21:50",0.0,14.7,60.8,1009.0,329.1,3.5,5.4,329.1,0.00,7.3,17.7,"21:42:34",1
"23/05/09","22:00",0.0,14.2,65.0,1009.0,333.6,3.0,4.1,318.3,0.00,7.8,17.3,"21:51:14",1
"23/05/09","22:10",0.0,13.7,67.1,1009.0,332.2,2.1,3.5,8.7,0.00,7.8,17.5,"22:09:12",1
"23/05/09","22:20",0.0,13.6,68.1,1009.3,343.9,2.0,3.2,337.5,0.00,7.9,17.5,"22:11:22",1
"23/05/09","22:30",0.0,13.5,68.6,1009.3,337.8,2.2,4.2,348.4,0.00,7.9,17.4,"22:26:00",1
"23/05/09","22:40",0.0,13.4,68.7,1009.5,337.1,2.1,3.2,345.8,0.00,7.8,17.3,"22:34:08",1
"23/05/09","22:50",0.0,13.3,68.2,1009.5,338.4,2.1,3.3,336.7,0.00,7.6,17.2,"22:46:40",1
"23/05/09","23:00",0.0,13.1,68.7,1009.5,334.0,2.5,2.9,336.0,0.00,7.5,17.2,"22:55:22",1
"23/05/09","23:10",0.0,12.9,69.4,1009.7,328.2,3.1,4.4,320.2,0.00,7.5,17.3,"23:07:22",1
"23/05/09","23:20",0.0,12.8,69.9,1010.0,331.3,3.1,5.1,326.4,0.00,7.5,17.2,"23:12:56",1
"23/05/09","23:30",0.0,12.6,70.4,1009.7,335.1,2.3,2.8,334.2,0.00,7.4,17.0,"23:28:20",1
"23/05/09","23:40",0.0,12.5,71.1,1009.5,332.0,2.3,3.6,321.6,0.00,7.5,16.8,"23:31:28",1
"23/05/09","23:50",0.0,12.4,71.6,1010.0,333.1,2.6,3.2,315.9,0.00,7.5,17.0,"23:48:56",1
"23/05/09","24:00",0.0,12.4,71.8,1009.7,330.3,2.6,2.9,345.6,0.00,7.5,16.9,"23:50:14",1
